Weather observations for the past three days for
Cotulla, Cotulla-La Salle County Airport
Imperial (Metric)
Date Time (cdt) Wind (mph) Vis. (mi.) Weather Sky Cond. Temperature (ºF) Relative Humidity Wind Chill (°F) Heat Index (°F) Pressure Precipitation (in)
Air Dwpt 6 hour altimeter (in) sea level (mb) 1 hr 3 hr 6 hr
Max. Min.
04 18:53 E 10 10.00 Fair CLR 99 64 104 93 32% 102 29.8 1008.2
04 17:53 E 10 10.00 A Few Clouds FEW120 100 64.9 32% 103 29.79 1008.0
04 16:53 E 10 10.00 Mostly Cloudy BKN085 BKN110 102 64.9 30% 106 29.8 1008.2
04 15:53 SE 6 10.00 A Few Clouds FEW075 100.9 66 32% 105 29.82 1008.8
04 14:53 Vrbl 3 10.00 Fair CLR 99 69.1 38% 105 29.85 1009.7
04 13:53 Calm 10.00 A Few Clouds FEW049 97 71.1 43% 105 29.87 1010.6
04 12:53 E 9 10.00 A Few Clouds FEW038 93.9 73 95 79 51% 103 29.9 1011.6
04 11:53 S 9 10.00 Partly Cloudy SCT033 91 73.9 57% 101 29.93 1012.4
04 10:53 SE 10 10.00 Mostly Cloudy SCT026 BKN032 88 73.9 63% 97 29.93 1012.6
04 09:53 SE 8 10.00 Overcast BKN019 BKN026 OVC034 84 75 74% 92 29.93 1012.5
04 08:53 SE 12 10.00 Mostly Cloudy BKN014 BKN021 82 75.9 82% 89 29.91 1012.0
04 07:53 E 7 10.00 Overcast OVC014 80.1 75.9 87% 85 29.9 1011.5
04 06:53 SE 9 10.00 Fair CLR 80.1 75 82.9 80.1 85% 85 29.88 1010.8
04 05:53 E 6 10.00 Fair CLR 80.1 75 85% 85 29.87 1010.6
04 04:53 SE 9 10.00 Fair CLR 81 75 82% 87 29.86 1010.4
04 03:53 SE 8 10.00 Fair CLR 82 75 79% 89 29.87 1010.6
04 02:53 SE 9 10.00 A Few Clouds FEW025 82.9 75 77% 90 29.87 1010.7
04 01:53 SE 12 10.00 Mostly Cloudy BKN021 82.9 75.9 79% 91 29.89 1011.1
04 00:53 SE 13 10.00 Fair CLR 82.9 75.9 102.9 82.9 79% 91 29.89 1011.1
03 23:53 SE 17 10.00 Fair CLR 84 75 74% 92 29.89 1011.1
03 22:53 SE 20 G 33 10.00 Fair CLR 86 73.9 67% 94 29.88 1010.9
03 21:53 SE 21 G 28 10.00 Fair and Breezy CLR 88 73.9 63% 97 29.85 1009.7
03 20:53 SE 21 G 29 10.00 Fair and Breezy CLR 91.9 73 54% 101 29.81 1008.5
03 19:53 SE 25 G 35 10.00 A Few Clouds and Breezy FEW100 96.1 72 46% 105 29.78 1007.6
03 17:53 E 8 10.00 Fair CLR 102.9 62.1 26% 105 29.76 1006.7
03 16:53 E 8 10.00 Fair CLR 105.1 61 24% 107 29.76 1006.8
03 15:53 NE 9 10.00 Fair CLR 105.1 62.1 25% 107 29.78 1007.5
03 14:53 SE 10 G 22 10.00 Mostly Cloudy BKN075 100.9 66.9 33% 106 29.81 1008.5
03 13:53 NE 6 10.00 Fair CLR 100 70 38% 108 29.84 1009.6
03 12:53 S 9 10.00 Fair CLR 97 72 97 79 45% 106 29.87 1010.6
03 11:53 Vrbl 7 10.00 Fair CLR 93 73.9 54% 103 29.9 1011.6
03 10:53 Calm 10.00 Fair CLR 89.1 75 63% 99 29.9 1011.6
03 09:53 S 8 G 18 10.00 Fair CLR 86 75 70% 95 29.91 1011.9
03 08:53 SE 12 10.00 Fair CLR 82.9 75 77% 90 29.92 1012.1
03 07:53 E 6 9.00 Fair CLR 80.1 75 85% 85 29.91 1012.0
03 06:53 SE 7 10.00 Fair CLR 79 75 86 79 88% 83 29.9 1011.4
03 05:53 SE 7 10.00 Fair CLR 81 75 82% 87 29.89 1011.4
03 04:53 SE 7 10.00 Fair CLR 82 75 79% 89 29.89 1011.2
03 03:53 S 8 10.00 Fair CLR 82.9 75 77% 90 29.89 1011.4
03 02:53 SE 12 10.00 Fair CLR 84 75.9 77% 93 29.9 1011.5
03 01:53 SE 13 10.00 Fair CLR 84.9 75.9 75% 94 29.9 1011.6
03 00:53 SE 14 10.00 Fair CLR 86 75 102.9 86 70% 95 29.9 1011.5
02 23:53 SE 14 10.00 Fair CLR 88 73.9 63% 97 29.89 1011.3
02 22:53 SE 16 G 21 10.00 Fair CLR 90 73 58% 98 29.88 1010.9
02 21:53 SE 15 G 29 10.00 Fair CLR 91.9 73 54% 101 29.86 1010.1
02 20:53 SE 20 G 30 10.00 Fair CLR 96.1 71.1 44% 104 29.82 1009.0
02 19:53 E 8 10.00 Fair CLR 100.9 61 27% 102 29.81 1008.4
02 18:53 E 9 10.00 Fair CLR 102.9 59 105.1 96.1 24% 103 29.81 1008.4
02 17:53 E 13 G 18 10.00 Fair CLR 105.1 60.1 23% 106 29.81 1008.5
02 16:53 SE 10 G 20 10.00 Partly Cloudy SCT100 104 61 24% 106 29.82 1009.0
02 15:53 Vrbl 6 10.00 Mostly Cloudy BKN090 102.9 61 25% 104 29.84 1009.5
02 14:53 Calm 10.00 Fair CLR 100.9 64 30% 104 29.87 1010.7
02 13:53 Vrbl 3 10.00 A Few Clouds FEW070 100.9 64.9 31% 105 29.9 1011.6
02 12:53 NW 3 10.00 Fair CLR 96.1 70 97 77 43% 103 29.94 1012.9
02 11:53 Vrbl 3 10.00 Fair CLR 93 73 52% 102 29.96 1013.7
02 10:53 Vrbl 6 10.00 Fair CLR 90 73.9 59% 99 29.97 1013.9
02 09:53 Vrbl 7 10.00 Fair CLR 84.9 73.9 70% 92 29.98 1014.2
02 08:53 SE 8 10.00 Fair CLR 82 73.9 77% 88 29.97 1014.1
02 07:53 E 5 10.00 Fair CLR 78.1 73 85% 81 29.97 1013.8
02 06:53 E 6 10.00 Fair CLR 78.1 73 84.9 78.1 85% 81 29.95 1013.3
02 05:53 SE 3 10.00 Fair CLR 79 73 82% 82 29.94 1013.0
02 04:53 SE 5 10.00 Fair CLR 80.1 72 76% 84 29.94 1013.0
02 03:53 E 6 10.00 Fair CLR 81 72 74% 85 29.95 1013.2
02 02:53 S 7 10.00 Fair CLR 82 71.1 69% 86 29.95 1013.2
02 01:53 SE 7 10.00 Fair CLR 84 70 63% 88 29.95 1013.1
02 00:53 SE 12 10.00 Fair CLR 84.9 72 100.9 84.9 65% 91 29.94 1013.0
01 23:53 SE 8 10.00 Fair CLR 87.1 68 53% 91 29.94 1012.9
01 22:53 SE 9 10.00 Fair CLR 89.1 71.1 55% 95 29.93 1012.6
01 21:53 SE 12 G 21 10.00 Fair CLR 91.9 70 49% 98 29.9 1011.7
01 20:53 E 8 10.00 Fair CLR 95 60.1 31% 95 29.87 1010.5
01 19:53 E 7 10.00 Fair CLR 98.1 57.9 26% 97 29.85 1009.9
Date Time (cdt) Wind (mph) Vis. (mi.) Weather Sky Cond. Air Dwpt Max. Min. Relative Humidity Wind Chill (°F) Heat Index (°F) altimeter (in) sea level (mb) 1 hr 3 hr 6 hr
6 hour
Temperature (ºF) Pressure Precipitation (in)